Regional Weather Roundup
Issued by NWS

Home | Current Version | Previous Version | Graphics & Text | Print | Product List | Glossary On
Versions: 1 2 3 4 5 6 7 8 9 10 11 12 13 14 15 16 17 18 19 20 21 22 23 24 25 26 27 28 29 30 31 32 33 34 35 36 37 38 39 40 41 42 43 44 45 46 47 48 49 50
000
ASUS43 KIND 290309
RWRIN

WEATHER ROUNDUP FOR INDIANA
NATIONAL WEATHER SERVICE INDIANAPOLIS IN
1100 PM EDT SAT MAR 28 2015

NOTE: "FAIR" INDICATES FEW OR NO CLOUDS BELOW 12,000 FEET WITH NO
SIGNIFICANT WEATHER AND/OR OBSTRUCTIONS TO VISIBILITY.

* - STATION DOES NOT REPORT WEATHER SUCH AS PRECIPITATION OR FOG.

+ - STATION NOT QUALITY CONTROLLED BY THE NATIONAL WEATHER SERVICE.
    USE DATA WITH CAUTION...ESPECIALLY DEWPOINT AND RELATIVE
    HUMIDITY OBSERVATIONS.

INZ001>003-010>013-019-020-290400-
NORTHWEST INDIANA

CITY           SKY/WX    TMP DP  RH WIND       PRES   REMARKS
GARY /AIRPORT/ CLEAR     27   9  46 SE6       30.33R WCI  20
KNOX *+          N/A     23  10  58 CALM      30.32S
LA PORTE +     CLEAR     25  15  66 CALM      30.32S
MICHIGAN CITY+ CLEAR     21  10  63 CALM      30.32S
MONTICELLO +   CLEAR     30  17  56 CALM      30.32R
RENSSELAER +   CLEAR     30  21  69 SE3       30.32R
VALPARAISO     CLEAR     22  13  68 E5        30.32R WCI  16

$$

LMZ046-743>745-290400-
SOUTHERN LAKE MICHIGAN

STATION/POSITION TIME  TEMP WIND        PRES
                       AIR  DIR/SP/G
                 (UTC) (F)  (DEG/KT/KT) (MB)
BURNS HARBOR     0300   26  110/  5/  6 1027.1S
MICHIGAN CITY    0300   25   90/  5/  6   N/A

$$

INZ004-005-014>016-021>024-290400-
NORTH CENTRAL INDIANA

CITY           SKY/WX    TMP DP  RH WIND       PRES   REMARKS
GOSHEN         CLEAR     27  16  63 NW3       30.31R
LOGANSPORT +   CLEAR     28  21  74 S3        30.33S
PERU/GRISSOM   FAIR      26  18  72 S3        30.31R
ROCHESTER +    CLEAR     32  18  55 S3        30.32S
SOUTH BEND     CLEAR     24  13  62 CALM      30.32S
WARSAW +       CLEAR     25  14  63 CALM      30.31S

$$

INZ006>009-017-018-025>027-290400-
NORTHEAST INDIANA

CITY           SKY/WX    TMP DP  RH WIND       PRES   REMARKS
ANGOLA *+      CLEAR     23  14  68 CALM      30.29R
AUBURN +       CLEAR     27  12  54 CALM      30.32R
FORT WAYNE     CLEAR     26  19  74 SW6       30.32S WCI  19
HUNTINGTON +   CLEAR     24  13  62 CALM      30.32S

$$

INZ028-029-035-036-043>045-051>053-290400-
WEST CENTRAL INDIANA

CITY           SKY/WX    TMP DP  RH WIND       PRES   REMARKS
CRAWFORDSVL +  CLEAR     25  13  61 MISG      30.32S
GREENCASTLE +  CLEAR     28  14  54 CALM      30.33R
LAFAYETTE      CLEAR     28  13  53 CALM      30.33R
TERRE HAUTE    CLEAR     28  20  71 E3        30.34R

$$

INZ030>032-037>040-046>048-054>057-064-065-290400-
CENTRAL INDIANA

CITY           SKY/WX    TMP DP  RH WIND       PRES   REMARKS
CP ATTERBURY + CLEAR     27  21  80 CALM      30.35R
FISHERS *+     CLEAR     25  19  80 CALM      30.34R
FRANKFORT +    CLEAR     25  18  76 E6        30.34R WCI  18
GREENWOOD *+   CLEAR     28  12  50 CALM      30.34R
INDIANAPOLIS   FAIR      31  12  45 E5        30.32R WCI  26
-EAGLE CREEK   CLEAR     27  15  61 E3        30.32S
KOKOMO *+        N/A     27  19  74 S5        30.33R WCI  21
MARION +       CLEAR     26  18  72 SW3       30.34R
MT COMFORT *+  CLEAR     27  10  50 E3        30.33S
SHELBYVILLE    CLEAR     28  20  71 E3        30.33R
ZIONSVILLE +   FAIR      28  18  66 CALM      30.33R

$$

INZ033-034-041-042-049-050-058-059-290400-
EAST CENTRAL INDIANA

CITY           SKY/WX    TMP DP  RH WIND       PRES   REMARKS
MUNCIE         FAIR      28  13  53 S3        30.33R

$$

INZ060-061-067>069-081>083-085>088-290400-
SOUTHWEST INDIANA

CITY           SKY/WX    TMP DP  RH WIND       PRES   REMARKS
EVANSVILLE     CLEAR     34  22  61 CALM      30.35R
HUNTINGBURG *+ CLEAR     32  18  55 CALM      30.35R
WASHINGTON +   CLEAR     29  22  76 CALM      30.34R

$$

INZ062-063-066-070>080-084-089>092-290400-
SOUTH CENTRAL AND SOUTHEAST INDIANA

CITY           SKY/WX    TMP DP  RH WIND       PRES   REMARKS
BEDFORD +      CLEAR     30  16  55 CALM      30.33R
BLOOMINGTON    CLEAR     26  18  71 SW5       30.32R WCI  20
NORTH VERNON + CLEAR     28  21  74 CALM      30.34R
SEYMOUR +      CLEAR     28  19  69 CALM      30.35R

$$



USA.gov is the U.S. government's official web portal to all federal, state and local government web resources and services.